Date,TemperatureHighF,TemperatureAvgF,TemperatureLowF,DewpointHighF,DewpointAvgF,DewpointLowF,HumidityHigh,HumidityAvg,HumidityLow,PressureMaxIn,PressureMinIn,WindSpeedMaxMPH,WindSpeedAvgMPH,GustSpeedMaxMPH,PrecipitationSumIn
2013-1-1,36,30,15,27,19,8,76,64,49,29.91,29.68,9,4,27,0.00
2013-1-2,29,18,8,17,9,2,86,69,57,30.09,29.87,7,3,20,0.00
2013-1-3,24,12,0,11,1,-6,82,63,34,30.12,29.97,5,1,12,0.00
2013-1-4,37,26,9,25,19,7,93,76,57,29.97,29.78,9,3,24,0.00
2013-1-5,40,31,18,26,21,15,90,68,43,30.23,29.82,7,2,20,0.00
2013-1-6,42,30,19,29,25,16,92,82,60,30.20,29.91,7,1,14,0.00
2013-1-7,37,28,18,30,21,16,96,79,48,30.37,29.93,7,2,16,0.00
2013-1-8,45,32,21,30,26,19,95,79,52,30.34,30.22,8,3,19,0.00
2013-1-9,43,34,20,36,28,18,96,81,57,30.38,29.97,7,2,19,0.00
2013-1-10,46,40,29,30,26,23,81,58,45,30.51,30.01,9,4,25,0.00
2013-1-11,38,32,23,36,27,21,97,85,67,30.50,30.20,2,0,7,0.06
2013-1-12,40,38,35,40,37,34,99,98,96,30.20,30.10,2,0,8,0.01
2013-1-13,50,44,37,50,44,37,99,99,99,30.12,29.95,5,2,11,0.00
2013-1-14,60,50,40,53,44,29,99,81,47,30.23,29.80,9,3,20,0.00
2013-1-15,41,36,30,30,27,25,86,70,55,30.29,30.18,5,1,10,0.00
2013-1-16,33,32,30,32,30,26,97,93,82,30.22,29.79,2,0,4,0.33
2013-1-17,40,33,26,34,28,15,97,82,55,30.06,29.80,5,2,13,0.00
2013-1-18,29,21,16,16,4,-2,65,48,34,30.42,30.03,9,4,23,0.00
2013-1-19,47,36,20,33,23,8,77,60,43,30.35,29.84,10,5,29,0.00
2013-1-20,52,40,27,33,26,12,77,60,39,29.89,29.50,13,5,31,0.00
2013-1-21,28,24,19,20,12,6,93,63,44,30.06,29.77,7,2,20,0.02
2013-1-22,25,18,11,20,9,0,93,68,42,30.05,29.73,7,3,20,0.00
2013-1-23,16,10,5,1,-5,-8,69,50,36,30.11,30.03,8,4,21,0.00
2013-1-24,20,10,0,-3,-6,-9,68,48,31,30.21,30.03,9,4,23,0.00
2013-1-25,24,16,6,12,-3,-9,77,43,28,30.28,30.04,7,3,22,0.00
2013-1-26,24,16,9,13,4,-4,90,60,33,30.22,29.98,8,3,19,0.00
2013-1-27,30,19,8,6,2,-2,78,50,31,30.44,30.21,10,3,19,0.00
2013-1-28,30,23,15,25,15,3,95,72,39,30.43,29.99,4,1,12,0.12
2013-1-29,33,29,25,32,28,23,97,93,89,30.17,30.00,3,1,6,0.00
2013-1-30,60,47,32,58,46,32,99,96,89,30.12,29.41,9,4,27,0.04
2013-1-31,61,47,29,59,38,17,96,73,46,29.56,28.92,13,7,46,0.55
2013-2-1,33,28,21,20,11,6,67,48,35,30.05,29.56,8,5,21,0.00
2013-2-2,30,24,14,13,8,4,69,52,42,30.22,30.02,6,3,16,0.00
2013-2-3,26,24,19,22,20,13,93,85,58,30.03,29.70,5,2,9,0.00
2013-2-4,30,23,16,21,12,6,94,66,45,29.91,29.69,9,4,25,0.00
2013-2-5,28,24,19,22,14,8,91,66,54,30.00,29.91,4,1,14,0.00
2013-2-6,39,29,22,27,20,7,95,70,44,30.27,29.90,7,2,19,0.00
2013-2-7,30,23,13,11,6,1,81,49,33,30.49,30.27,8,2,16,0.00
2013-2-8,32,24,18,29,20,8,96,87,49,30.46,29.60,19,6,34,0.45
2013-2-9,22,18,14,18,15,7,94,86,74,30.18,29.58,15,8,33,0.29
2013-2-10,39,19,-1,15,6,-4,88,63,21,30.36,30.18,6,1,17,0.00
2013-2-11,36,27,8,36,24,5,98,92,74,30.33,29.58,4,0,12,0.17
2013-2-12,44,37,28,36,30,23,99,75,57,29.84,29.58,9,4,24,0.00
2013-2-13,42,32,22,27,25,20,93,76,53,29.84,29.66,6,1,11,0.00
2013-2-14,44,34,26,27,24,21,89,67,42,29.96,29.68,7,2,15,0.00
2013-2-15,51,37,26,35,30,23,96,78,53,29.96,29.86,8,3,20,0.00
2013-2-16,38,33,26,32,27,18,96,80,57,29.92,29.70,9,3,20,0.01
2013-2-17,29,21,16,21,11,2,89,66,47,29.70,29.37,11,7,32,0.08
2013-2-18,31,22,13,4,2,-1,59,43,26,30.13,29.66,9,5,27,0.00
2013-2-19,47,35,19,42,24,4,98,67,47,30.15,29.55,6,2,16,0.23
2013-2-20,40,32,26,40,22,12,98,67,46,29.75,29.51,9,5,23,0.00
2013-2-21,33,27,23,16,15,12,74,60,47,30.17,29.74,10,5,25,0.00
2013-2-22,38,30,19,26,21,16,89,70,47,30.36,30.17,10,3,18,0.00
2013-2-23,38,33,26,32,29,23,97,85,72,30.31,29.90,5,1,11,0.11
2013-2-24,35,33,31,35,32,30,98,96,94,29.89,29.67,10,4,19,0.45
2013-2-25,39,33,28,34,31,27,97,92,77,30.22,29.87,3,1,7,0.00
2013-2-26,43,34,25,36,29,24,98,83,60,30.31,30.13,7,2,13,0.00
2013-2-27,41,38,34,40,36,30,98,94,85,30.14,29.54,12,7,31,1.20
2013-2-28,45,37,32,38,34,31,98,92,75,29.61,29.50,3,1,7,0.00
2013-3-1,40,36,29,34,31,28,98,81,67,29.66,29.51,6,2,14,0.00
2013-3-2,42,36,30,31,28,26,85,73,62,29.65,29.59,6,2,13,0.00
2013-3-3,40,34,32,33,29,26,94,82,73,29.62,29.53,5,2,11,0.00
2013-3-4,40,34,29,29,25,22,84,71,57,29.72,29.55,8,5,22,0.00
2013-3-5,45,35,30,33,28,24,94,74,57,30.05,29.72,7,3,17,0.00
2013-3-6,39,36,31,35,33,30,96,90,75,30.08,30.02,15,8,30,0.10
2013-3-7,35,32,31,32,30,28,95,91,81,30.05,29.97,15,9,28,0.05
2013-3-8,39,33,30,34,29,25,97,86,63,30.13,29.92,10,6,23,0.61
2013-3-9,48,35,23,32,25,20,96,69,38,30.33,30.13,12,3,22,0.00
2013-3-10,43,32,18,33,27,16,96,85,66,30.39,30.28,7,2,12,0.00
2013-3-11,54,42,32,40,36,30,95,80,52,30.30,30.12,6,3,14,0.00
2013-3-12,56,49,41,53,47,40,98,94,82,30.13,29.69,8,3,22,0.37
2013-3-13,51,42,30,51,32,22,98,70,36,29.75,29.67,6,3,17,0.00
2013-3-14,36,30,22,25,17,8,82,59,43,29.81,29.68,8,4,23,0.00
2013-3-15,41,30,19,28,15,6,79,55,29,29.84,29.60,7,4,19,0.00
2013-3-16,39,33,27,26,17,10,81,54,31,29.86,29.65,7,2,19,0.00
2013-3-17,38,30,20,20,13,6,86,52,29,30.29,29.85,9,3,21,0.00
2013-3-18,38,28,15,27,11,3,92,52,27,30.43,30.22,5,2,11,0.04
2013-3-19,35,32,27,33,31,25,97,95,92,30.22,29.59,14,6,24,1.07
2013-3-20,39,30,23,26,23,20,95,76,50,29.79,29.68,7,3,20,0.00
2013-3-21,38,28,18,28,22,16,94,79,44,29.79,29.58,6,1,11,0.00
2013-3-22,41,33,26,26,21,17,95,63,43,29.72,29.58,7,3,18,0.00
2013-3-23,43,34,26,25,21,19,81,59,41,29.76,29.61,8,4,28,0.00
2013-3-24,46,37,29,28,24,21,85,61,43,29.79,29.69,9,3,19,0.00
2013-3-25,41,35,28,34,30,25,93,82,69,29.75,29.49,13,5,26,0.00
2013-3-26,49,40,33,31,27,20,80,60,35,29.76,29.52,7,3,14,0.00
2013-3-27,54,41,25,32,27,23,91,60,35,29.85,29.71,9,3,18,0.00
2013-3-28,48,41,35,36,34,30,93,77,52,29.99,29.84,8,2,14,0.00
2013-3-29,56,43,29,39,33,28,96,70,42,30.02,29.93,7,2,14,0.02
2013-3-30,57,44,32,34,26,16,92,54,21,30.07,29.97,7,2,14,0.00
2013-3-31,60,44,26,40,28,21,90,59,25,30.10,29.72,9,3,21,0.02
2013-4-1,63,47,34,45,37,14,97,72,40,29.76,29.47,9,4,24,0.09
2013-4-2,41,34,28,20,15,11,59,46,32,29.91,29.76,10,5,26,0.00
2013-4-3,47,37,29,19,16,11,63,43,24,30.14,29.90,9,6,22,0.00
2013-4-4,56,42,27,27,19,13,66,42,20,30.27,30.02,7,4,19,0.00
2013-4-5,62,46,36,32,28,22,74,52,23,30.02,29.60,9,4,23,0.00
2013-4-6,47,37,28,28,14,6,66,40,20,30.31,29.85,9,4,22,0.00
2013-4-7,57,42,24,40,27,12,85,59,30,30.31,29.97,11,4,29,0.00
2013-4-8,65,52,41,44,40,34,95,68,33,30.06,29.92,6,2,14,0.00
2013-4-9,72,56,46,54,45,40,95,69,43,30.05,29.83,8,3,23,0.03
2013-4-10,64,52,46,51,46,42,96,83,59,29.99,29.83,5,2,11,0.15
2013-4-11,54,47,42,48,40,27,97,79,47,30.12,29.79,7,3,13,0.03
2013-4-12,42,38,36,38,36,32,96,90,70,30.14,29.77,11,5,26,0.41
2013-4-13,53,43,35,41,37,34,96,81,54,29.91,29.74,9,3,17,0.04
2013-4-14,53,45,34,42,34,28,95,67,41,30.19,29.89,7,2,18,0.00
2013-4-15,57,43,28,39,33,26,94,70,39,30.37,30.19,7,2,16,0.00
2013-4-16,66,52,36,52,43,34,95,73,49,30.38,30.02,9,5,26,0.00
2013-4-17,67,58,43,53,39,30,88,53,28,30.31,30.02,8,4,19,0.00
2013-4-18,65,50,33,45,35,29,92,60,36,30.40,30.11,9,3,22,0.00
2013-4-19,76,63,52,63,58,45,97,83,59,30.11,29.61,11,5,27,0.00
2013-4-20,67,54,43,63,43,25,95,68,38,30.18,29.57,9,4,22,0.44
2013-4-21,53,42,31,28,24,19,82,51,29,30.66,30.19,10,3,20,0.00
2013-4-22,50,40,29,38,30,22,94,69,35,30.73,30.57,10,4,25,0.00
2013-4-23,42,40,37,40,38,31,96,91,76,30.57,30.11,11,6,22,0.00
2013-4-24,76,56,41,54,45,39,96,71,27,30.11,29.75,9,5,24,0.00
2013-4-25,64,54,40,52,38,26,91,58,26,30.24,29.80,8,3,24,0.03
2013-4-26,59,47,32,40,35,29,92,66,41,30.40,30.24,8,3,18,0.00
2013-4-27,64,51,34,43,37,32,95,63,37,30.40,30.25,5,2,14,0.00
2013-4-28,70,54,36,44,37,29,95,57,28,30.31,30.18,8,2,17,0.00
2013-4-29,70,57,44,50,39,28,91,54,28,30.24,30.15,7,2,16,0.00
2013-4-30,68,56,42,41,32,21,83,44,20,30.34,30.22,7,2,16,0.00
2013-5-1,68,53,34,42,35,31,95,56,28,30.44,30.33,7,2,15,0.00
2013-5-2,76,55,38,49,41,35,95,64,28,30.46,30.31,10,2,20,0.00
2013-5-3,60,49,39,47,41,36,93,75,58,30.50,30.35,11,4,20,0.00
2013-5-4,60,48,36,47,39,33,96,73,39,30.35,30.27,11,3,20,0.00
2013-5-5,59,46,31,44,38,29,96,74,52,30.31,30.22,7,2,15,0.00
2013-5-6,71,51,33,52,43,31,97,77,34,30.26,30.11,6,2,13,0.00
2013-5-7,77,62,42,60,52,40,97,72,47,30.15,30.05,5,2,13,0.00
2013-5-8,73,62,50,63,58,48,97,87,69,30.17,30.02,7,3,16,0.17
2013-5-9,68,60,56,63,58,55,98,94,76,30.02,29.86,5,1,9,0.81
2013-5-10,80,66,54,63,58,53,99,78,44,29.93,29.86,4,1,11,0.01
2013-5-11,70,64,59,63,59,55,95,85,73,29.88,29.66,8,3,22,0.03
2013-5-12,71,61,48,61,52,32,96,76,43,29.78,29.53,5,2,22,0.14
2013-5-13,60,49,38,39,34,29,89,57,33,30.00,29.78,6,2,22,0.00
2013-5-14,59,48,34,39,34,29,93,62,34,30.03,29.94,6,2,17,0.00
2013-5-15,67,51,33,52,41,31,96,73,32,30.03,29.65,7,2,22,0.02
2013-5-16,81,65,45,54,44,34,98,54,23,29.77,29.60,7,2,27,0.00
2013-5-17,68,59,47,47,43,37,86,57,35,30.19,29.78,9,3,19,0.00
2013-5-18,75,58,40,50,44,39,96,64,28,30.28,30.19,5,1,15,0.00
2013-5-19,73,56,46,55,50,43,97,82,47,30.32,30.19,6,2,12,0.03
2013-5-20,82,67,55,69,62,54,98,83,56,30.19,29.87,4,1,12,0.05
2013-5-21,79,61,51,69,58,49,98,89,66,29.99,29.83,11,4,23,0.00
2013-5-22,69,56,50,64,54,49,98,92,79,30.04,29.86,8,2,16,0.24
2013-5-23,76,64,54,71,61,53,99,92,80,29.90,29.77,6,2,20,0.22
2013-5-24,73,63,48,68,61,47,98,93,78,29.80,29.62,6,2,15,0.25
2013-5-25,51,47,41,50,46,39,97,96,94,29.79,29.68,6,3,20,0.28
2013-5-26,58,48,40,46,41,38,96,77,54,30.08,29.69,7,3,21,0.05
2013-5-27,73,57,38,48,41,36,97,62,28,30.15,30.04,6,2,20,0.00
2013-5-28,74,58,39,53,46,37,96,68,34,30.21,30.12,7,2,14,0.00
2013-5-29,70,62,58,65,60,52,97,91,83,30.16,29.95,4,1,8,0.86
2013-5-30,89,75,60,72,66,59,99,78,51,30.05,29.96,5,1,14,0.01
2013-5-31,94,80,61,74,66,60,98,69,39,30.06,29.89,6,2,15,0.00
2013-6-1,93,80,64,72,67,62,94,67,41,29.94,29.81,7,2,18,0.00
2013-6-2,90,78,68,72,67,64,91,71,44,29.84,29.68,10,4,31,0.00
2013-6-3,80,69,60,70,63,46,95,81,60,29.82,29.72,4,1,14,0.41
2013-6-4,72,61,47,50,47,42,90,61,41,30.06,29.79,6,2,15,0.00
2013-6-5,75,62,47,54,49,44,96,65,36,30.16,30.05,5,1,11,0.00
2013-6-6,74,64,52,57,52,48,92,65,46,30.16,30.06,4,1,13,0.02
2013-6-7,59,56,53,56,54,52,98,95,85,30.08,29.79,7,3,15,2.23
2013-6-8,80,63,53,66,58,52,99,86,60,29.97,29.60,7,3,18,1.03
2013-6-9,81,68,54,61,57,52,98,73,44,30.13,29.97,5,1,16,0.00
2013-6-10,69,61,52,61,57,51,97,87,66,30.17,29.99,5,2,10,0.79
2013-6-11,62,58,56,59,57,55,98,95,87,29.99,29.54,7,3,17,0.99
2013-6-12,70,62,56,60,56,53,98,81,61,29.78,29.53,8,3,23,0.06
2013-6-13,67,57,49,60,54,48,97,90,70,29.79,29.65,5,1,14,0.72
2013-6-14,76,60,52,62,55,51,98,85,48,29.74,29.62,7,3,13,1.00
2013-6-15,79,66,51,56,51,43,97,64,28,29.91,29.74,6,2,15,0.00
2013-6-16,78,65,50,63,56,48,96,74,46,29.91,29.68,5,1,12,0.00
2013-6-17,86,70,57,67,61,55,97,77,40,29.87,29.74,6,2,16,0.86
2013-6-18,74,62,57,65,60,56,98,92,72,29.91,29.85,10,2,21,0.40
2013-6-19,75,64,55,59,54,47,98,74,40,30.11,29.88,7,2,15,0.12
2013-6-20,80,66,48,59,53,47,97,67,37,30.23,30.11,5,1,13,0.00
2013-6-21,86,72,57,66,60,54,92,69,36,30.21,30.15,4,1,10,0.00
2013-6-22,85,73,60,69,62,58,95,71,46,30.18,30.07,5,2,15,0.00
2013-6-23,90,77,64,76,67,58,84,72,57,30.12,29.95,6,2,17,0.00
2013-6-24,94,81,70,76,71,65,95,74,50,29.98,29.83,5,2,15,0.03
2013-6-25,92,80,68,75,70,66,95,74,49,29.89,29.68,5,2,18,0.00
2013-6-26,84,75,68,74,70,66,95,84,63,29.82,29.68,6,1,11,0.05
2013-6-27,74,66,62,69,65,61,98,94,82,29.84,29.72,5,2,11,0.08
2013-6-28,84,71,60,76,68,59,99,90,71,29.73,29.44,8,3,18,0.31
2013-6-29,86,76,70,73,70,67,97,82,61,29.69,29.48,6,3,18,0.00
2013-6-30,86,77,68,75,71,66,97,82,64,29.89,29.68,5,2,13,0.00
2013-7-1,83,75,71,76,72,70,97,91,76,30.04,29.90,4,1,11,0.05
2013-7-2,85,74,62,76,70,60,95,88,66,30.17,30.03,8,3,15,0.00
2013-7-3,89,75,61,76,69,60,98,84,60,30.17,30.09,5,2,16,0.00
2013-7-4,93,83,71,78,74,70,97,76,55,30.17,30.05,4,2,13,0.00
2013-7-5,94,84,74,79,75,71,95,74,53,30.12,29.99,4,2,13,0.00
2013-7-6,91,82,70,77,73,65,96,75,53,30.04,29.93,4,1,13,0.00
2013-7-7,94,78,66,79,72,64,96,82,55,29.99,29.86,3,1,10,0.03
2013-7-8,85,76,67,77,72,65,98,87,69,30.03,29.87,8,2,15,0.00
2013-7-9,73,68,64,69,66,63,97,92,85,30.07,30.01,5,2,8,0.00
2013-7-10,86,74,66,77,71,64,98,90,72,30.04,29.75,5,2,16,0.04
2013-7-11,84,76,71,76,73,68,98,90,73,29.89,29.74,4,1,10,0.05
2013-7-12,76,70,66,68,62,57,94,75,56,30.16,29.89,10,4,21,0.00
2013-7-13,79,71,65,72,66,60,94,85,77,30.27,30.17,6,2,11,0.01
2013-7-14,91,79,68,76,72,66,98,81,52,30.26,30.16,3,1,9,0.01
2013-7-15,92,80,68,78,72,67,98,79,50,30.17,30.05,5,1,12,0.00
2013-7-16,93,80,66,75,70,64,98,74,45,30.13,30.06,6,2,16,0.00
2013-7-17,95,82,68,76,72,67,97,73,44,30.14,29.95,4,1,11,0.00
2013-7-18,92,82,74,78,73,69,95,76,49,29.97,29.90,5,2,13,0.00
2013-7-19,97,85,71,79,74,69,97,74,48,29.91,29.67,6,2,20,0.00
2013-7-20,93,84,72,80,75,66,93,75,57,29.77,29.61,4,2,12,0.00
2013-7-21,82,74,65,70,66,62,95,78,57,29.95,29.77,5,2,11,0.00
2013-7-22,82,71,63,72,67,62,98,86,64,29.98,29.85,5,2,12,0.00
2013-7-23,82,73,69,78,71,67,99,95,84,29.85,29.50,4,1,12,0.82
2013-7-24,85,76,65,76,69,54,99,79,59,29.92,29.54,7,2,14,0.00
2013-7-25,65,60,58,58,55,50,97,84,69,30.08,29.93,7,3,16,1.37
2013-7-26,73,65,59,70,63,58,98,94,88,30.04,29.91,5,2,15,0.27
2013-7-27,85,72,57,70,64,56,98,79,51,30.02,29.95,4,1,12,0.00
2013-7-28,82,71,64,74,67,61,98,88,71,29.99,29.92,6,2,13,0.01
2013-7-29,85,74,66,74,69,65,98,85,61,30.00,29.92,5,1,13,0.07
2013-7-30,82,71,59,66,62,57,98,74,45,30.06,29.99,4,1,11,0.01
2013-7-31,83,71,58,67,61,56,97,74,44,30.10,30.00,4,1,7,0.00
2013-8-1,82,70,60,69,64,59,98,83,58,30.01,29.84,5,1,13,0.01
2013-8-2,84,72,64,70,64,60,98,80,47,29.84,29.75,4,1,13,0.63
2013-8-3,80,70,63,68,64,60,96,80,57,29.83,29.74,4,1,14,0.00
2013-8-4,80,67,56,63,58,54,97,76,47,29.86,29.73,5,1,14,0.00
2013-8-5,75,63,51,57,50,45,97,67,35,30.02,29.86,6,2,19,0.00
2013-8-6,80,63,47,60,53,46,97,72,42,30.11,30.02,4,1,10,0.00
2013-8-7,80,67,52,64,56,50,97,72,40,30.15,30.07,4,1,12,0.00
2013-8-8,81,72,64,73,67,57,96,86,73,30.09,29.97,4,2,12,0.15
2013-8-9,75,72,71,74,71,69,98,95,92,29.99,29.71,5,2,18,1.18
2013-8-10,84,73,59,70,64,56,98,75,44,29.98,29.75,4,2,13,0.01
2013-8-11,81,67,52,62,57,50,97,73,44,30.05,29.96,5,1,12,0.00
2013-8-12,84,70,57,66,60,56,98,75,44,30.00,29.88,3,1,10,0.00
2013-8-13,77,68,63,69,64,61,97,90,68,29.89,29.65,2,0,8,0.02
2013-8-14,74,66,57,62,56,53,97,73,51,29.93,29.63,6,2,18,0.00
2013-8-15,78,64,50,58,54,49,97,72,41,30.08,29.93,4,1,13,0.00
2013-8-16,80,66,52,62,56,50,98,75,41,30.16,30.08,4,1,14,0.00
2013-8-17,80,66,52,65,58,51,98,78,54,30.24,30.16,4,1,8,0.00
2013-8-18,79,67,55,68,62,54,97,83,60,30.24,30.05,2,0,7,0.00
2013-8-19,82,70,57,68,62,56,98,78,52,30.05,29.92,3,1,8,0.00
2013-8-20,87,73,59,68,63,57,97,74,42,30.06,29.95,3,1,9,0.00
2013-8-21,89,74,58,71,64,57,98,76,45,30.11,29.99,3,1,9,0.00
2013-8-22,87,74,62,74,68,61,97,82,56,30.00,29.79,6,2,17,0.00
2013-8-23,80,72,62,69,62,52,96,73,44,30.10,29.78,8,2,16,0.00
2013-8-24,79,64,50,55,51,47,96,68,36,30.30,30.10,7,1,14,0.00
2013-8-25,84,66,48,61,54,46,97,69,34,30.34,30.15,4,1,11,0.00
2013-8-26,81,71,64,69,63,57,88,78,61,30.15,29.83,5,1,14,0.00
2013-8-27,84,73,64,72,68,62,97,83,58,29.86,29.79,5,1,10,0.02
2013-8-28,86,70,59,71,64,58,98,83,59,29.95,29.82,7,1,14,0.00
2013-8-29,65,64,60,64,62,57,96,92,88,30.04,29.91,9,4,16,0.00
2013-8-30,85,70,60,70,64,58,95,82,58,30.00,29.78,4,1,9,0.00
2013-8-31,81,74,68,75,71,66,98,91,79,29.80,29.75,5,2,13,0.02
2013-9-1,80,73,69,76,71,67,98,94,86,29.85,29.75,4,1,10,0.27
2013-9-2,80,74,71,76,72,70,98,94,86,29.84,29.67,4,1,13,0.20
2013-9-3,81,73,62,73,69,58,98,87,68,29.78,29.66,5,1,11,0.00
2013-9-4,81,68,55,64,58,54,98,75,44,29.89,29.77,4,1,15,0.01
2013-9-5,70,61,48,62,54,44,97,78,43,30.12,29.83,6,2,17,0.03
2013-9-6,71,55,40,50,45,39,97,72,40,30.22,30.06,4,1,11,0.00
2013-9-7,80,63,47,59,53,46,97,73,40,30.06,29.82,4,1,12,0.00
2013-9-8,75,63,48,64,54,42,96,74,43,30.07,29.72,9,2,21,0.02
2013-9-9,70,56,39,52,46,38,97,73,42,30.21,30.07,4,1,13,0.00
2013-9-10,75,65,53,71,62,49,96,90,84,30.13,30.00,5,2,16,0.08
2013-9-11,95,80,68,79,73,67,99,80,51,30.03,29.89,5,2,13,0.00
2013-9-12,87,77,68,76,70,66,97,81,61,29.93,29.63,7,2,20,0.94
2013-9-13,80,68,59,70,65,55,98,90,67,29.73,29.53,5,1,13,0.17
2013-9-14,67,60,50,57,54,47,92,81,66,30.03,29.73,5,1,12,0.00
2013-9-15,72,58,44,57,50,43,98,78,46,30.13,30.02,3,1,10,0.00
2013-9-16,67,56,47,58,51,39,97,84,64,30.23,29.98,5,2,15,0.01
2013-9-17,63,50,38,47,41,36,94,72,45,30.40,30.23,7,2,15,0.00
2013-9-18,74,55,38,54,46,36,98,75,38,30.30,30.11,4,1,8,0.00
2013-9-19,80,60,44,60,52,42,98,77,39,30.11,30.00,3,0,7,0.01
2013-9-20,80,62,46,62,54,44,98,78,39,30.06,29.96,3,1,7,0.00
2013-9-21,75,64,50,66,60,48,98,87,66,30.00,29.69,6,2,18,0.01
2013-9-22,71,64,50,67,58,46,96,81,52,29.81,29.57,5,2,17,0.48
2013-9-23,62,52,42,48,44,40,93,74,55,29.98,29.81,6,2,16,0.00
2013-9-24,67,52,39,48,43,37,96,74,46,29.97,29.78,6,2,15,0.00
2013-9-25,67,53,41,53,47,40,98,82,61,29.96,29.84,7,1,12,0.00
2013-9-26,67,57,50,53,50,48,95,80,55,30.10,29.96,6,1,10,0.00
2013-9-27,64,57,48,56,52,46,96,85,69,30.24,30.10,6,1,12,0.00
2013-9-28,72,56,43,59,50,42,98,82,54,30.30,30.23,7,1,13,0.00
2013-9-29,69,53,43,57,47,41,98,84,45,30.24,30.10,5,1,10,0.01
2013-9-30,68,54,43,55,49,42,99,85,53,30.11,29.94,4,1,9,0.01
2013-10-1,76,58,42,58,51,41,99,80,47,29.94,29.82,5,1,11,0.00
2013-10-2,80,63,48,64,57,47,98,82,55,29.92,29.79,5,1,15,0.00
2013-10-3,77,60,48,60,52,46,98,77,40,30.05,29.92,3,0,7,0.01
2013-10-4,64,56,47,59,54,46,98,93,83,30.06,30.01,4,0,7,0.07
2013-10-5,69,61,56,60,57,55,98,88,72,30.10,30.03,3,1,6,0.01
2013-10-6,60,56,54,58,55,52,98,97,91,30.20,30.08,6,2,14,0.36
2013-10-7,77,65,56,72,62,55,100,92,76,30.10,29.77,8,2,30,0.06
2013-10-8,64,55,42,56,46,40,96,74,46,30.35,29.87,6,2,15,0.00
2013-10-9,61,48,37,49,42,36,97,82,55,30.45,30.34,7,2,16,0.01
2013-10-10,62,50,37,54,46,36,98,88,71,30.35,30.16,5,1,10,0.00
2013-10-11,70,55,43,57,47,33,98,78,28,30.16,30.07,6,1,12,0.00
2013-10-12,59,52,42,56,49,40,98,92,85,30.37,30.13,8,3,19,0.00
2013-10-13,59,50,38,52,46,35,97,85,67,30.42,30.35,7,1,15,0.00
2013-10-14,65,48,32,51,41,31,98,80,41,30.38,30.22,3,0,8,0.01
2013-10-15,66,55,46,57,50,45,97,86,68,30.24,30.15,6,1,10,0.00
2013-10-16,61,54,46,56,51,44,98,91,74,30.16,29.88,3,1,8,0.00
2013-10-17,73,60,49,62,56,48,99,87,64,29.89,29.69,4,1,12,0.01
2013-10-18,67,59,43,60,52,41,97,79,50,29.88,29.58,6,2,20,0.03
2013-10-19,67,52,37,51,43,36,98,75,43,29.95,29.72,5,1,11,0.00
2013-10-20,62,52,37,50,41,34,95,70,40,29.99,29.66,6,2,17,0.02
2013-10-21,67,50,33,47,40,31,98,73,42,30.09,29.97,5,1,13,0.00
2013-10-22,66,52,39,54,46,37,97,79,59,29.97,29.67,6,1,16,0.00
2013-10-23,52,43,34,42,36,32,97,77,51,29.77,29.57,2,0,6,0.00
2013-10-24,54,44,32,38,31,26,94,64,39,29.86,29.62,7,2,22,0.00
2013-10-25,50,38,28,40,29,26,96,72,46,30.13,29.86,5,1,15,0.00
2013-10-26,56,41,26,39,30,25,97,69,34,30.13,29.86,9,3,27,0.00
2013-10-27,55,47,37,41,36,30,92,67,45,30.04,29.78,5,2,16,0.02
2013-10-28,59,43,30,39,32,26,96,68,43,30.33,30.04,7,2,21,0.01
2013-10-29,50,34,24,32,24,20,95,69,33,30.42,30.32,4,1,9,0.00
2013-10-30,52,37,27,43,34,24,95,87,66,30.35,30.17,3,0,10,0.03
2013-10-31,60,45,28,59,44,27,98,95,86,30.22,29.76,5,1,17,0.23
2013-11-1,70,63,55,63,58,52,97,84,69,29.76,29.42,35,5,35,0.12
2013-11-2,67,54,43,52,46,42,98,76,41,29.70,29.55,10,1,10,0.01
2013-11-3,50,41,30,47,30,16,92,67,40,30.40,29.69,16,4,16,0.00
2013-11-4,42,31,23,21,19,16,88,61,36,30.68,30.40,15,2,15,0.00
2013-11-5,49,35,22,34,27,19,94,76,48,30.69,30.49,10,1,10,0.00
2013-11-6,62,50,38,49,42,34,90,76,52,30.49,30.01,15,3,17,0.00
2013-11-7,65,54,37,58,50,33,94,87,73,30.01,29.63,20,3,20,0.17
2013-11-8,50,38,28,37,29,23,94,71,50,30.08,29.79,18,2,20,0.00
2013-11-9,46,37,27,30,26,23,85,64,42,30.19,30.00,20,2,20,0.00
2013-11-10,55,44,39,46,37,30,95,76,59,30.00,29.71,16,2,16,0.04
2013-11-11,52,44,37,34,30,27,73,58,39,30.08,29.83,15,3,16,0.00
2013-11-12,48,35,26,39,27,17,92,72,59,30.17,29.86,18,3,20,0.09
2013-11-13,36,27,20,21,16,12,86,65,42,30.27,30.14,12,2,15,0.00
2013-11-14,50,38,27,27,23,17,68,55,36,30.14,30.01,15,2,16,0.00
2013-11-15,61,44,27,34,25,17,85,53,19,30.17,30.07,18,2,18,0.00
2013-11-16,60,43,30,36,31,25,86,65,28,30.29,30.16,8,1,8,0.00
2013-11-17,51,41,28,45,37,26,96,86,71,30.29,29.82,5,0,5,0.00
2013-11-18,65,56,46,61,47,32,99,73,49,29.81,29.50,18,3,22,0.20
2013-11-19,48,39,29,33,24,17,64,55,44,30.26,29.62,23,4,23,0.00
2013-11-20,41,31,21,19,17,14,83,57,34,30.61,30.25,19,3,19,0.00
2013-11-21,47,32,18,30,22,15,92,69,36,30.62,30.35,11,1,11,0.00
2013-11-22,46,42,37,45,40,29,97,92,72,30.35,29.79,7,0,7,0.10
2013-11-23,45,39,28,45,28,17,98,67,40,29.89,29.75,22,4,22,0.00
2013-11-24,28,24,19,18,6,-2,73,49,30,30.17,29.76,34,6,34,0.00
2013-11-25,32,24,15,17,5,-4,60,45,24,30.35,30.17,18,3,18,0.00
2013-11-26,40,35,30,33,23,16,95,64,49,30.31,30.02,13,2,13,0.06
2013-11-27,62,50,35,60,49,33,98,96,92,30.01,29.18,26,4,26,1.56
2013-11-28,36,30,22,34,19,8,92,64,38,30.41,29.43,22,4,22,0.00
2013-11-29,33,26,20,18,13,2,80,58,36,30.72,30.41,13,2,13,0.00
2013-11-30,32,22,11,24,15,7,90,72,56,30.78,30.40,10,1,10,0.00
2013-12-1,36,33,29,35,30,24,97,90,78,30.40,29.99,9,0,9,0.05
2013-12-2,39,37,35,38,36,34,98,97,97,29.99,29.89,5,0,6,0.00
2013-12-3,47,37,28,39,34,27,98,89,62,29.93,29.82,12,2,12,0.00
2013-12-4,43,32,25,34,28,23,97,85,59,30.17,29.92,9,1,9,0.00
2013-12-5,45,37,28,44,36,26,98,94,91,30.19,29.89,9,0,9,0.00
2013-12-6,54,47,34,53,45,32,99,92,72,30.12,29.83,15,2,15,0.35
2013-12-7,38,32,23,34,28,21,97,86,65,30.43,30.06,14,2,14,0.05
2013-12-8,31,26,20,23,20,17,93,77,59,30.57,30.43,7,1,8,0.00
2013-12-9,35,30,25,34,29,18,97,93,67,30.48,29.86,9,1,9,0.34
2013-12-10,33,30,24,32,28,17,98,92,73,29.98,29.75,15,2,20,0.01
2013-12-11,31,25,19,20,18,15,87,77,59,30.18,29.98,19,3,20,0.00
2013-12-12,24,19,13,19,9,2,90,67,41,30.25,30.05,18,2,18,0.00
2013-12-13,29,20,12,18,12,3,83,71,56,30.38,29.97,19,3,20,0.00
2013-12-14,20,14,10,18,5,-2,93,70,53,30.59,30.14,13,4,13,0.14
2013-12-15,33,26,20,32,25,18,97,95,90,30.14,29.41,23,2,23,0.87
2013-12-16,27,22,15,22,15,8,94,77,56,30.18,29.72,14,1,15,0.00
2013-12-17,18,10,-4,16,6,-8,93,86,76,30.27,29.94,14,2,15,0.32
2013-12-18,33,23,14,25,19,12,93,86,71,30.05,29.86,15,3,17,0.01
2013-12-19,41,31,22,29,25,20,92,79,55,30.09,29.92,19,3,21,0.00
2013-12-20,52,39,28,38,32,26,94,77,54,30.09,29.87,12,2,13,0.00
2013-12-21,58,47,40,48,42,35,93,82,69,29.94,29.83,13,2,13,0.00
2013-12-22,52,40,33,51,39,33,98,97,92,30.01,29.77,15,2,18,0.00
2013-12-23,36,33,31,35,32,31,99,98,98,30.06,29.93,10,2,10,0.54
2013-12-24,36,31,25,35,24,14,99,74,54,30.18,30.03,13,2,13,0.00
2013-12-25,25,18,13,16,7,2,83,62,48,30.52,30.18,19,2,19,0.00
2013-12-26,30,22,13,27,18,9,93,87,81,30.49,30.06,5,0,5,0.03
2013-12-27,34,24,16,26,20,14,94,82,62,30.25,30.17,12,2,12,0.00
2013-12-28,46,32,23,29,25,19,92,77,51,30.19,29.96,17,2,18,0.00
2013-12-29,41,35,26,37,32,24,97,89,70,30.01,29.40,21,2,21,1.13
2013-12-30,40,32,18,38,24,10,98,76,47,30.14,29.50,17,3,19,0.00
2013-12-31,25,18,13,16,7,-1,83,63,48,30.16,29.99,13,2,14,0.00
2014-1-1,28,20,12,14,10,6,83,66,48,30.36,30.16,14,2,14,0.00
2014-1-2,20,11,0,16,8,-3,90,88,80,30.34,29.85,25,7,25,0.08